Weather History for Buena Vista, CO

Change the Weather History Date:

Wednesday, January 15, 2014

  Actual Average (KLXV) Record (KLXV)
Temperature  
Mean Temperature 34 °F -  
Max Temperature 41 °F 30 °F 43 °F (1988)
Min Temperature 28 °F 4 °F -19 °F (2013)
Degree Days  
Heating Degree Days 30 48  
Month to date heating degree days 720  
Since 1 July heating degree days 5621  
Cooling Degree Days 0 0  
Month to date cooling degree days 0  
Year to date cooling degree days 0  
Moisture  
Dew Point 12 °F    
Average Humidity 42    
Maximum Humidity 53    
Minimum Humidity 31    
Precipitation  
Precipitation 0.00 in 0.03 in 0.10 in (1977)
Month to date precipitation 0.32  
Year to date precipitation 0.32  
Sea Level Pressure  
Sea Level Pressure 30.25 in    
Wind  
Wind Speed 19 mph (NW)    
Max Wind Speed 28 mph    
Max Gust Speed 41 mph    
Visibility 10 miles    
Events      
T = Trace of Precipitation, MM = Missing Value Source: NWS Daily Summary

Daily Weather History Graph

Daily Weather History Graph

Search for Another Location

Airport:

Trip Planner

Search our weather history database for the weather conditions in past years. The results will help you decide how hot, cold, wet, or windy it might be!

Date:

Astronomy

Jan. 15, 2014 Rise Set
Actual Time 7:21 AM MST 5:06 PM MST
Civil Twilight 6:52 AM MST 5:36 PM MST
Nautical Twilight 6:19 AM MST 6:08 PM MST
Astronomical Twilight 5:47 AM MST 6:40 PM MST
Moon 5:06 PM MST (1/15) 6:39 AM MST (1/15)
Length of Visible Light 10h 43m
Length of Day
9h 45m
Full, 100% of the Moon is Illuminated
Jan 15
Full
Jan 15
Full
Jan 23
Last Quarter
Jan 30
New
Feb 6
First Quarter

Hourly Weather History & Observations

Time (MST) Temp. Windchill Dew Point Humidity Pressure Visibility Wind Dir Wind Speed Gust Speed Precip Events Conditions
12:15 AM 28.8 °F 14.6 °F 11.8 °F 49% 30.32 in 10.0 mi NNW 24.2 mph 36.8 mph N/A   Clear
12:35 AM 28.8 °F 15.2 °F 12.2 °F 50% 30.33 in 10.0 mi NNW 21.9 mph 34.5 mph N/A   Clear
12:55 AM 28.4 °F 15.1 °F 12.2 °F 51% 30.31 in 10.0 mi NNW 20.7 mph 33.4 mph N/A   Clear
1:15 AM 28.6 °F 15.3 °F 12.4 °F 51% 30.32 in 10.0 mi NNW 20.7 mph 34.5 mph N/A   Clear
1:35 AM 28.4 °F 14.7 °F 12.6 °F 52% 30.31 in 10.0 mi NNW 21.9 mph 29.9 mph N/A   Clear
1:55 AM 28.0 °F 14.6 °F 12.7 °F 53% 30.32 in 10.0 mi NNW 20.7 mph 26.5 mph N/A   Clear
2:15 AM 28.6 °F 16.8 °F 12.6 °F 51% 30.32 in 10.0 mi NNW 16.1 mph 31.1 mph N/A   Clear
2:35 AM 28.6 °F 16.0 °F 12.7 °F 52% 30.32 in 10.0 mi NNW 18.4 mph 28.8 mph N/A   Clear
2:55 AM 28.4 °F 16.2 °F 13.1 °F 53% 30.32 in 10.0 mi NNW 17.3 mph 31.1 mph N/A   Clear
3:15 AM 28.9 °F 14.5 °F 13.1 °F 52% 30.30 in 10.0 mi NNW 25.3 mph 33.4 mph N/A   Clear
3:35 AM 29.1 °F 16.0 °F 13.1 °F 51% 30.30 in 10.0 mi NW 20.7 mph 33.4 mph N/A   Clear
3:55 AM 29.7 °F 16.1 °F 13.1 °F 50% 30.29 in 10.0 mi NW 23.0 mph 38.0 mph N/A   Clear
4:15 AM 28.6 °F 15.6 °F 13.1 °F 52% 30.29 in 10.0 mi NNW 19.6 mph 34.5 mph N/A   Clear
4:35 AM 28.4 °F 15.1 °F 12.9 °F 52% 30.28 in 10.0 mi NNW 20.7 mph 26.5 mph N/A   Clear
4:55 AM 28.9 °F 16.5 °F 13.1 °F 52% 30.28 in 10.0 mi NNW 18.4 mph 27.6 mph N/A   Clear
5:15 AM 29.1 °F 16.7 °F 13.1 °F 51% 30.28 in 10.0 mi NNW 18.4 mph 36.8 mph N/A   Clear
5:35 AM 28.8 °F 14.9 °F 13.3 °F 52% 30.28 in 10.0 mi NNW 23.0 mph 29.9 mph N/A   Clear
5:55 AM 29.7 °F 17.8 °F 12.9 °F 50% 30.28 in 10.0 mi NNW 17.3 mph 34.5 mph N/A   Clear
6:15 AM 29.7 °F 16.7 °F 12.9 °F 50% 30.27 in 10.0 mi NNW 20.7 mph 27.6 mph N/A   Clear
6:35 AM 29.5 °F 18.4 °F 13.1 °F 51% 30.28 in 10.0 mi NW 15.0 mph 26.5 mph N/A   Clear
6:55 AM 29.8 °F 18.0 °F 13.1 °F 50% 30.28 in 10.0 mi NNW 17.3 mph 29.9 mph N/A   Clear
7:15 AM 30.4 °F 17.0 °F 12.6 °F 48% 30.28 in 10.0 mi NW 23.0 mph 26.5 mph N/A   Clear
7:35 AM 31.1 °F 18.6 °F 12.4 °F 46% 30.29 in 10.0 mi NNW 20.7 mph 36.8 mph N/A   Clear
7:55 AM 31.1 °F 17.4 °F 12.4 °F 46% 30.27 in 10.0 mi NNW 25.3 mph 34.5 mph N/A   Clear
8:15 AM 32.2 °F 19.7 °F 11.5 °F 42% 30.28 in 10.0 mi NW 21.9 mph 41.4 mph N/A   Clear
8:35 AM 32.0 °F 23.6 °F 12.0 °F 44% 30.29 in 10.0 mi NW 10.4 mph 31.1 mph N/A   Clear
8:55 AM 32.7 °F 21.8 °F 12.2 °F 43% 30.29 in 10.0 mi NW 17.3 mph 34.5 mph N/A   Clear
9:15 AM 33.3 °F 21.8 °F 12.0 °F 41% 30.28 in 10.0 mi NNW 19.6 mph 31.1 mph N/A   Clear
9:35 AM 33.3 °F 20.6 °F 12.0 °F 41% 30.29 in 10.0 mi NNW 24.2 mph 32.2 mph N/A   Clear
9:55 AM 33.8 °F 20.5 °F 12.0 °F 41% 30.28 in 10.0 mi NNW 27.6 mph 34.5 mph N/A   Clear
10:15 AM 35.4 °F 23.0 °F 11.7 °F 38% 30.28 in 10.0 mi NNW 26.5 mph 38.0 mph N/A   Clear
10:35 AM 36.3 °F 23.9 °F 12.7 °F 38% 30.29 in 10.0 mi NNW 27.6 mph 38.0 mph N/A   Clear
10:55 AM 36.0 °F 24.2 °F 13.1 °F 39% 30.29 in 10.0 mi NNW 24.2 mph 33.4 mph N/A   Clear
11:15 AM 36.5 °F 26.0 °F 12.9 °F 38% 30.28 in 10.0 mi NW 19.6 mph 31.1 mph N/A   Clear
11:35 AM 37.2 °F 27.6 °F 12.7 °F 37% 30.28 in 10.0 mi NW 17.3 mph 27.6 mph N/A   Clear
11:55 AM 37.8 °F 28.0 °F 10.9 °F 33% 30.27 in 10.0 mi NW 18.4 mph 24.2 mph N/A   Clear
12:15 PM 39.7 °F 30.9 °F 12.6 °F 33% 30.25 in 10.0 mi NW 17.3 mph 21.9 mph N/A   Clear
12:35 PM 41.4 °F 32.4 °F 12.7 °F 31% 30.24 in 10.0 mi NNW 19.6 mph 28.8 mph N/A   Clear
12:55 PM 41.4 °F 31.4 °F 12.9 °F 31% 30.23 in 10.0 mi NW 24.2 mph 29.9 mph N/A   Clear
1:15 PM 41.4 °F 31.6 °F 13.6 °F 32% 30.22 in 10.0 mi NW 23.0 mph 32.2 mph N/A   Clear
1:35 PM 41.4 °F 32.1 °F 13.5 °F 32% 30.21 in 10.0 mi NW 20.7 mph 29.9 mph N/A   Clear
1:55 PM 41.4 °F 31.6 °F 14.4 °F 33% 30.21 in 10.0 mi NW 23.0 mph 26.5 mph N/A   Clear
2:15 PM 41.2 °F 31.9 °F 15.1 °F 35% 30.20 in 10.0 mi NW 20.7 mph 27.6 mph N/A   Clear
2:35 PM 41.2 °F 34.1 °F 15.1 °F 35% 30.19 in 10.0 mi NW 12.7 mph 27.6 mph N/A   Clear
2:55 PM 41.7 °F 34.4 °F 14.7 °F 34% 30.18 in 10.0 mi WNW 13.8 mph 18.4 mph N/A   Clear
3:15 PM 41.9 °F 36.9 °F 13.6 °F 32% 30.17 in 10.0 mi NW 8.1 mph 17.3 mph N/A   Clear
3:35 PM 41.5 °F 35.4 °F 13.6 °F 32% 30.18 in 10.0 mi NW 10.4 mph - N/A   Clear
3:55 PM 40.5 °F 32.8 °F 12.4 °F 32% 30.18 in 10.0 mi NW 13.8 mph - N/A   Clear
4:15 PM 40.3 °F 35.5 °F 12.0 °F 32% 30.19 in 10.0 mi NW 6.9 mph - N/A   Clear
4:35 PM 38.1 °F 34.6 °F 10.4 °F 32% 30.17 in 10.0 mi WNW 4.6 mph - N/A   Clear
4:55 PM 36.5 °F 31.8 °F 11.5 °F 36% 30.18 in 10.0 mi WNW 5.8 mph - N/A   Clear
5:15 PM 35.6 °F 28.6 °F 12.0 °F 38% 30.19 in 10.0 mi NW 9.2 mph 18.4 mph N/A   Clear
5:35 PM 34.0 °F 28.8 °F 11.3 °F 39% 30.19 in 10.0 mi NNW 5.8 mph - N/A   Clear
5:55 PM 34.0 °F 28.0 °F 10.4 °F 38% 30.19 in 10.0 mi NNW 6.9 mph - N/A   Clear
6:15 PM 32.7 °F 25.0 °F 12.2 °F 43% 30.19 in 10.0 mi NNW 9.2 mph - N/A   Clear
6:35 PM 32.2 °F 26.7 °F 11.3 °F 42% 30.20 in 10.0 mi West 5.8 mph - N/A   Clear
6:55 PM 32.2 °F 25.8 °F 10.6 °F 41% 30.22 in 10.0 mi NW 6.9 mph - N/A   Clear
7:15 PM 33.4 °F 27.3 °F 9.0 °F 36% 30.21 in 10.0 mi NNW 6.9 mph - N/A   Clear
7:35 PM 33.4 °F 24.8 °F 9.7 °F 37% 30.21 in 10.0 mi NNW 11.5 mph 27.6 mph N/A   Clear
7:55 PM 33.1 °F 22.6 °F 9.3 °F 37% 30.20 in 10.0 mi North 16.1 mph 25.3 mph N/A   Clear
8:15 PM 32.7 °F 24.5 °F 10.0 °F 39% 30.21 in 10.0 mi NNW 10.4 mph 31.1 mph N/A   Clear
8:35 PM 33.3 °F 24.1 °F 9.3 °F 37% 30.23 in 10.0 mi NNW 12.7 mph 20.7 mph N/A   Clear
8:55 PM 32.7 °F 21.4 °F 10.0 °F 39% 30.23 in 10.0 mi NNW 18.4 mph 28.8 mph N/A   Clear
9:15 PM 32.5 °F 21.9 °F 10.8 °F 40% 30.25 in 10.0 mi NW 16.1 mph 25.3 mph N/A   Clear
9:35 PM 32.0 °F 21.6 °F 10.8 °F 41% 30.26 in 10.0 mi NW 15.0 mph - N/A   Clear
9:55 PM 31.1 °F 20.9 °F 11.7 °F 45% 30.25 in 10.0 mi NW 13.8 mph - N/A   Clear
10:15 PM 30.2 °F 21.3 °F 11.5 °F 46% 30.25 in 10.0 mi NW 10.4 mph - N/A   Clear
10:35 PM 30.7 °F 20.4 °F 10.9 °F 44% 30.25 in 10.0 mi NW 13.8 mph - N/A   Clear
10:55 PM 28.9 °F 19.8 °F 11.5 °F 48% 30.25 in 10.0 mi NW 10.4 mph - N/A   Clear
11:15 PM 29.3 °F 20.2 °F 10.9 °F 46% 30.25 in 10.0 mi NW 10.4 mph 20.7 mph N/A   Clear
11:35 PM 29.5 °F 18.8 °F 10.4 °F 45% 30.25 in 10.0 mi NW 13.8 mph 21.9 mph N/A   Clear
11:55 PM 29.7 °F 17.8 °F 10.2 °F 44% 30.24 in 10.0 mi NNW 17.3 mph 25.3 mph N/A   Clear